Fairbanks, AK

2:57 AM AKDT on September 21, 2017 (GMT -0800)
Fairbanks International

Weather History for PAFA - January, 2015

Change the Weather History Date:

Thursday, January 8, 2015

  Actual Average Record
Temperature  
Mean Temperature 0 °F -8 °F  
Max Temperature 17 °F 1 °F 40 °F (1930)
Min Temperature -17 °F -15 °F -53 °F (1952)
Degree Days  
Heating Degree Days 65 73  
Month to date heating degree days 619 580  
Since 1 July heating degree days 6094 6852  
Cooling Degree Days 0 0  
Month to date cooling degree days 0 0  
Year to date cooling degree days 0 0  
Moisture  
Dew Point -4 °F    
Average Humidity 71    
Maximum Humidity 80    
Minimum Humidity 53    
Precipitation  
Precipitation T in 0.02 in 0.38 in (1960)
Month to date precipitation T 0.17  
Year to date precipitation T 0.17  
Snow  
Snow T in 0.40 in 6.00 in (1960)
Month to date snowfall 0.0 3.1  
Since 1 July snowfall 25.0 41.0  
Snow Depth 10.00 in    
Sea Level Pressure  
Sea Level Pressure 30.13 in    
Wind  
Wind Speed 2 mph (NE)    
Max Wind Speed 5 mph    
Max Gust Speed -    
Visibility 10 miles    
Events Rain    
T = Trace of Precipitation, MM = Missing Value Source: NWS Daily Summary

Daily Weather History Graph

Daily Weather History Graph

Search for Another Location

Airport or City:

Trip Planner

Search our weather history database for the weather conditions in past years. The results will help you decide how hot, cold, wet, or windy it might be!

Date:

Astronomy

Jan. 08, 2015 Rise Set
Actual Time 10:42 AM AKST 3:14 PM AKST
Civil Twilight 9:26 AM AKST 4:30 PM AKST
Nautical Twilight 8:17 AM AKST 5:39 PM AKST
Astronomical Twilight 7:17 AM AKST 6:39 PM AKST
Moon 8:52 PM AKST (1/8) 10:50 AM AKST (1/8)
Length of Visible Light 7h 04m
Length of Day
4h 31m
Waning Gibbous, 88% of the Moon is Illuminated
Jan 8
Waning Gibbous
Jan 13
Last Quarter
Jan 20
New
Jan 26
First Quarter
Feb 3
Full

Hourly Weather History & Observations

Time (AKST) Temp. Windchill Dew Point Humidity Pressure Visibility Wind Dir Wind Speed Gust Speed Precip Events Conditions
12:53 AM -13.0 °F -22.7 °F -20.9 °F 68% 30.37 in 10.0 mi NNE 3.5 mph - N/A   Clear
1:53 AM -11.0 °F -22.8 °F -18.0 °F 71% 30.35 in 10.0 mi NE 4.6 mph - N/A   Clear
2:53 AM -9.9 °F -21.5 °F -18.0 °F 68% 30.33 in 10.0 mi NE 4.6 mph - N/A   Clear
3:53 AM -13.0 °F -22.7 °F -18.9 °F 75% 30.32 in 10.0 mi NNE 3.5 mph - N/A   Clear
4:53 AM -11.0 °F -20.4 °F -18.9 °F 68% 30.29 in 10.0 mi NE 3.5 mph - N/A   Clear
5:53 AM -9.9 °F - -18.0 °F 68% 30.27 in 10.0 mi Calm Calm - N/A   Clear
6:53 AM -9.0 °F - -17.0 °F 68% 30.25 in 10.0 mi Calm Calm - N/A   Partly Cloudy
7:53 AM -9.9 °F -19.2 °F -17.0 °F 71% 30.23 in 10.0 mi North 3.5 mph - N/A   Partly Cloudy
8:53 AM -9.0 °F - -17.0 °F 68% 30.21 in 10.0 mi Calm Calm - N/A   Scattered Clouds
9:53 AM -6.0 °F - -13.0 °F 72% 30.20 in 10.0 mi Calm Calm - N/A   Mostly Cloudy
10:53 AM -2.0 °F - -9.9 °F 69% 30.18 in 10.0 mi Calm Calm - N/A   Mostly Cloudy
11:53 AM 1.9 °F -5.6 °F -5.1 °F 72% 30.15 in 10.0 mi NE 3.5 mph - N/A   Mostly Cloudy
12:53 PM 7.0 °F - -0.0 °F 73% 30.13 in 10.0 mi Calm Calm - N/A   Mostly Cloudy
1:53 PM 8.1 °F - 1.9 °F 76% 30.10 in 10.0 mi Calm Calm - N/A   Mostly Cloudy
2:53 PM 9.0 °F - 1.9 °F 73% 30.07 in 10.0 mi Calm Calm - N/A   Mostly Cloudy
3:53 PM 10.9 °F - 3.9 °F 73% 30.06 in 10.0 mi Calm Calm - N/A   Mostly Cloudy
4:53 PM 12.9 °F 6.9 °F 6.1 °F 74% 30.04 in 10.0 mi NE 3.5 mph - N/A   Mostly Cloudy
5:53 PM 10.9 °F - 5.0 °F 77% 30.03 in 10.0 mi Calm Calm - N/A   Mostly Cloudy
6:53 PM 12.0 °F - 6.1 °F 77% 30.01 in 10.0 mi Calm Calm - N/A   Mostly Cloudy
7:53 PM 12.0 °F 4.1 °F 7.0 °F 80% 30.00 in 10.0 mi NNE 4.6 mph - N/A   Overcast
8:53 PM 16.0 °F 8.8 °F 9.0 °F 74% 29.99 in 10.0 mi NNE 4.6 mph - N/A   Overcast
9:24 PM 17.1 °F 11.7 °F 10.9 °F 77% 29.93 in 10.0 mi East 3.5 mph - N/A Rain Light Freezing Rain
9:51 PM 17.6 °F - 10.4 °F 73% 29.93 in 10.0 mi Calm Calm - N/A   Overcast
9:53 PM 17.1 °F - 10.9 °F 77% 29.98 in 10.0 mi Calm Calm - N/A   Overcast
10:53 PM 17.6 °F - 12.2 °F 79% 29.91 in 10.0 mi Calm Calm - N/A   Overcast
11:53 PM 15.1 °F - 10.0 °F 80% 29.94 in 10.0 mi Calm Calm - N/A   Mostly Cloudy